User: anonymous   Login
Location: Caltech
(34.1382°N, 118.1253°W)
Time: 17:43:18
(UTC-07:00)
Language:

Cosmos 1733 Rocket - Orbit

View from above orbital plane
View from above orbital plane
View from above satellite
View from above satellite

Ground track
Ground track

The orbit data is extracted from the following two-line orbital elements,

1 16612U 86018B   18111.21095781  .00000095  00000-0  84425-5 0  9996
2 16612  82.5194   7.4333 0016789 212.3304 261.1151 14.84191421637146
Epoch (UTC): 21 April 2018 05:03:46
Eccentricity: 0.0016789
inclination: 82.5194°
perigee height: 604 km
apogee height: 628 km
right ascension of ascending node: 7.4333°
argument of perigee: 212.3304°
revolutions per day: 14.84191421
mean anomaly at epoch: 261.1151°
orbit number at epoch: 63714

The dashed part of the orbit path shows where the satellite is in the earth's shadow,  

DLR